Location: B?ogocice
(50.2413°N, 20.2361°E)
Time: 23:02:00
(UTC+00:00)

Cosmos 494 Rocket - Pass Details

Date: 15 June 2024
Orbit: 739 x 769 km, 74.1° (Epoch: 18 July)

Event Time Altitude Azimuth Distance (km) Brightness Sun altitude
Rises 00:39:26 0° 337° (NNW) 3,232 7.8 -11.8°
Reaches altitude 10° 00:41:50 10° 340° (NNW) 2,306 7.1 -11.6°
Maximum altitude 00:47:03 68° 63° (ENE) 826 4.4 -11.2°
Drops below altitude 10° 00:52:16 10° 147° (SSE) 2,304 6.2 -10.8°
Sets 00:54:39 0° 150° (SSE) 3,228 6.9 -10.6°
